Location: Home
(42.5358°N, 72.7383°W)
Time: 06:40:25
(UTC-04:00)

COSMOS 2251 DEB - Pass Details

Date: 26 June 2022
Orbit: 769 x 1233 km, 74.1° (Epoch: 15 August)

Event Time Altitude Azimuth Distance (km) Brightness Sun altitude
Exits shadow 02:32:23 23° 155° (SSE) 1,765 ? -20.3°
Maximum altitude 02:35:25 41° 100° (E) 1,303 ? -20.1°
Drops below altitude 10° 02:41:19 10° 32° (NNE) 2,776 ? -19.6°
Sets 02:44:10 0° 26° (NNE) 3,807 ? -19.4°
